Lake Charles, LA

1:45 PM CST on February 24, 2017 (GMT -0600)
Chennault International

Weather History for KCWF - December, 2012

Change the Weather History Date:

Thursday, December 6, 2012

  Actual Average Record
Temperature  
Mean Temperature 60 °F -  
Max Temperature 68 °F 63 °F 80 °F (1998)
Min Temperature 53 °F 49 °F 33 °F (2010)
Degree Days  
Heating Degree Days 4    
Growing Degree Days 10 (Base 50)    
Moisture  
Dew Point 55 °F    
Average Humidity 88    
Maximum Humidity 95    
Minimum Humidity 64    
Precipitation  
Precipitation 0.00 in - - ()
Sea Level Pressure  
Sea Level Pressure 30.00 in    
Wind  
Wind Speed 3 mph (NE)    
Max Wind Speed 6 mph    
Max Gust Speed -    
Visibility 7 miles    
Events Fog    
Averages and records for this station are not official NWS values.
T = Trace of Precipitation, MM = Missing Value Source: NWS Daily Summary

Daily Weather History Graph

Daily Weather History Graph

Search for Another Location

Airport or City:

Trip Planner

Search our weather history database for the weather conditions in past years. The results will help you decide how hot, cold, wet, or windy it might be!

Date:

Astronomy

Dec. 06, 2012 Rise Set
Actual Time 6:55 AM CST 5:12 PM CST
Civil Twilight 6:29 AM CST 5:38 PM CST
Nautical Twilight 5:59 AM CST 6:08 PM CST
Astronomical Twilight 5:30 AM CST 6:37 PM CST
Moon No Moon Rise 12:12 PM CST (12/6)
Length of Visible Light 11h 09m
Length of Day
10h 16m
Waning Gibbous, 49% of the Moon is Illuminated
Dec 6
Waning Gibbous
Dec 13
New
Dec 19
First Quarter
Dec 28
Full
Jan 4
Last Quarter

Hourly Weather History & Observations

Time (CST) Temp. Dew Point Humidity Pressure Visibility Wind Dir Wind Speed Gust Speed Precip Events Conditions
12:15 AM 57.2 °F 54.5 °F 91% 30.05 in 10.0 mi ENE 4.6 mph - N/A   Clear
12:35 AM 57.6 °F 54.7 °F 90% 30.05 in 10.0 mi NE 3.5 mph - N/A   Clear
12:55 AM 57.6 °F 54.7 °F 90% 30.04 in 10.0 mi ENE 4.6 mph - N/A   Mostly Cloudy
1:15 AM 58.1 °F 55.4 °F 91% 30.04 in 10.0 mi NE 4.6 mph - N/A   Overcast
1:35 AM 58.1 °F 55.4 °F 91% 30.04 in 10.0 mi NE 3.5 mph - N/A   Overcast
1:55 AM 57.9 °F 55.2 °F 91% 30.04 in 10.0 mi NNW 3.5 mph - N/A   Overcast
2:15 AM 58.3 °F 55.6 °F 91% 30.04 in 10.0 mi NW 3.5 mph - N/A   Overcast
2:35 AM 58.3 °F 55.6 °F 91% 30.05 in 10.0 mi North 3.5 mph - N/A   Overcast
2:55 AM 58.3 °F 55.8 °F 91% 30.05 in 10.0 mi North 4.6 mph - N/A   Overcast
3:15 AM 58.3 °F 55.8 °F 91% 30.03 in 10.0 mi North 3.5 mph - N/A   Overcast
3:35 AM 58.3 °F 55.8 °F 91% 30.02 in 10.0 mi Calm Calm - N/A   Overcast
3:55 AM 58.1 °F 55.6 °F 91% 30.02 in 10.0 mi NNE 3.5 mph - N/A   Overcast
6:00 AM 57.2 °F 55.4 °F 94% 30.02 in 7.0 mi Calm Calm - N/A   Overcast
6:50 AM 57.2 °F 55.4 °F 94% 30.03 in 5.0 mi Calm Calm - N/A   Overcast
7:58 AM 57.2 °F 55.4 °F 94% 30.04 in 5.0 mi Calm Calm - N/A   Overcast
8:55 AM 60.8 °F 57.2 °F 88% 30.04 in 5.0 mi Calm Calm - N/A   Overcast
9:45 AM 60.8 °F 57.2 °F 88% 30.04 in 6.0 mi Calm Calm - N/A   Overcast
10:45 AM 62.6 °F 57.2 °F 82% 30.04 in 7.0 mi Calm Calm - N/A   Overcast
11:45 AM 64.4 °F 57.2 °F 77% 30.02 in 7.0 mi Calm Calm - N/A   Overcast
12:53 PM 66.2 °F 55.4 °F 68% 29.98 in 10.0 mi Calm Calm - N/A   Scattered Clouds
1:45 PM 66.2 °F 55.4 °F 68% 29.95 in 10.0 mi Calm Calm - N/A   Scattered Clouds
2:50 PM 68.0 °F 55.4 °F 64% 29.94 in 10.0 mi Calm Calm - N/A   Scattered Clouds
3:50 PM 66.2 °F 55.4 °F 68% 29.94 in 10.0 mi East 5.8 mph - N/A   Scattered Clouds
4:50 PM 66.2 °F 57.2 °F 73% 29.94 in 10.0 mi East 5.8 mph - N/A   Scattered Clouds
5:50 PM 62.6 °F 57.2 °F 82% 29.94 in 10.0 mi East 3.5 mph - N/A   Clear
6:50 PM 59.0 °F 55.4 °F 88% 29.95 in 10.0 mi Calm Calm - N/A   Clear
7:50 PM 57.2 °F 55.4 °F 94% 29.95 in 5.0 mi South 3.5 mph - N/A   Scattered Clouds
8:50 PM 57.2 °F 55.4 °F 94% 29.96 in 4.0 mi Calm Calm - N/A   Clear
9:50 PM 55.4 °F 53.6 °F 94% 29.96 in 3.0 mi Calm Calm - N/A   Clear
10:15 PM 56.3 °F 54.9 °F 95% 29.96 in 3.0 mi Calm Calm - N/A   Clear
10:35 PM 55.8 °F 54.3 °F 95% 29.95 in 1.2 mi Calm Calm - N/A   Mist
10:55 PM 54.5 °F 52.9 °F 94% 29.95 in 0.2 mi SE 4.6 mph - N/A Fog Fog
11:15 PM 53.8 °F 52.5 °F 95% 29.94 in 0.5 mi ESE 3.5 mph - N/A Fog Fog
11:35 PM 54.1 °F 52.7 °F 95% 29.94 in 0.5 mi ESE 3.5 mph - N/A Fog Fog
11:55 PM 54.5 °F 52.9 °F 94% 29.94 in 0.5 mi Calm Calm - N/A Fog Fog